Location: Cosy Dell
(34.2789°N, 117.4537°W)
Time: 21:17:08
(UTC+00:00)

ARIANE 5 R/B - Pass Details

Date: 14 July 2020
Orbit: 749 x 794 km, 98.6° (Epoch: 13 August)

Event Time Altitude Azimuth Distance (km) Brightness Sun altitude
Rises 11:15:42 0° 2° (N) 3,238 6.4 -16.7°
Reaches altitude 10° 11:18:09 10° 354° (N) 2,315 5.5 -16.3°
Maximum altitude 11:22:45 35° 289° (WNW) 1,229 3.3 -15.6°
Enters shadow 11:25:10 23° 242° (WSW) 1,607 3.6 -15.2°
